Weather Roundup
Issued by NWS

Home | Current Version | Previous Version | Text Only | Print | Product List | Glossary On
Versions: 1 2 3 4 5 6 7 8 9 10 11 12 13 14 15 16 17 18 19 20 21 22 23 24 25 26 27 28 29 30 31 32 33 34 35 36 37 38 39 40 41 42 43 44 45 46 47 48 49 50
622
NZUS93 KARX 032110
HRRWXR

CURRENT HOURLY OBSERVATIONS ACROSS
MUCH OF THE UPPER MISSISSIPPI VALLEY
NATIONAL WEATHER SERVICE LA CROSSE WI
300 PM CST SAT DEC 03 2016


...SOUTHEAST MINNESOTA...


CITY           SKY/WX    TMP DP  RH WIND       PRES   REMARKS
ROCHESTER      PTSUNNY   31  24  75 S7        30.24F WCI  24
ROCHESTER/MAYO MOCLDY    31  22  70 S6        30.25S WCI  25
WINONA         CLOUDY    34  25  69 CALM      30.27F
AUSTIN         CLOUDY    32  25  74 S3        30.23F
ALBERT LEA     CLOUDY    37  28  70 S6        30.22F WCI  33
DODGE CENTER   CLOUDY    30  23  74 S3        30.23F
PRESTON        CLOUDY    31  22  67 S6        30.25S WCI  25
OWATONNA       CLOUDY    32  25  74 SE7       30.23F WCI  26
FARIBAULT      CLOUDY    32  25  74 SE6       30.24S WCI  26
$$

...ELSEWHERE IN MINNESOTA...


CITY           SKY/WX    TMP DP  RH WIND       PRES   REMARKS
MINNEAPOLIS    MOSUNNY   32  19  58 S10       30.24R WCI  24
INTNL FALLS    CLOUDY    26  18  71 VRB5      30.15F WCI  20
DULUTH         CLOUDY    29  23  78 SE7       30.18F WCI  22
RED WING       CLOUDY    32  19  59 S6        30.25S WCI  26
REDWOOD FALLS  CLOUDY    35  28  75 SE16      30.15F WCI  25
MANKATO        MOSUNNY   32  25  75 S9        30.21F WCI  24
WORTHINGTON    CLOUDY    35  31  85 S17       30.14F WCI  25
FAIRMONT       CLOUDY    36  31  82 SE8       30.19F WCI  30
$$

...SOUTHWEST WISCONSIN...


CITY           SKY/WX    TMP DP  RH WIND       PRES   REMARKS
LA CROSSE      CLOUDY    34  24  67 SE5       30.27F WCI  30
PRAIRIE DU CHI CLOUDY    35  25  66 E5        30.29S WCI  31
BOSCOBEL       CLOUDY    35  24  64 S5        30.30S WCI  31
LONE ROCK      CLOUDY    34  24  67 CALM      30.30S
PLATTEVILLE    CLOUDY    34  28  78 SW6       30.29S WCI  29
FORT MC COY    CLOUDY    32  23  69 SW3       30.28F
MAUSTON-NEW LI CLOUDY    32  22  64 W3        30.28R
VIROQUA        CLOUDY    31  26  80 S5        30.25F WCI  26
WIS DELLS      CLOUDY    32  21  64 W3        30.28S
$$

...ELSEWHERE IN WISCONSIN...


CITY           SKY/WX    TMP DP  RH WIND       PRES   REMARKS
MILWAUKEE      CLOUDY    33  22  63 W6        30.30F WCI  28
MADISON        CLOUDY    33  22  63 W6        30.29F WCI  28
GREEN BAY      CLOUDY    33  25  72 W7        30.29F WCI  27
EAU CLAIRE     CLOUDY    31  21  66 S3        30.26S
BLACK RVR FLS  CLOUDY    32  19  58 SW5       30.28R WCI  27
MEDFORD        CLOUDY    28  19  70 CALM      30.23S
WAUSAU         CLOUDY    29  20  69 NW7       30.24F WCI  22
WIS RAPIDS     CLOUDY    30  21  69 S6        30.29S WCI  24
MARSHFIELD     CLOUDY    29  21  72 SW6       30.25S WCI  23
RICE LAKE      CLOUDY    30  23  74 CALM      30.25F
$$

...NORTHEAST IOWA...


CITY           SKY/WX    TMP DP  RH WIND       PRES   REMARKS
WATERLOO       PTSUNNY   38  26  62 S5        30.25F WCI  34
DUBUQUE        CLOUDY    34  26  72 W5        30.28F WCI  30
DECORAH        CLOUDY    34  23  64 SW6       30.25R WCI  29
MASON CITY     CLOUDY    36  28  73 S5        30.23F WCI  32
CHARLES CITY   CLOUDY    36  27  69 SW6       30.24F WCI  31
OELWEIN        PTSUNNY   37  27  65 S5        30.26F WCI  34
$$

...ELSEWHERE IN IOWA...


CITY           SKY/WX    TMP DP  RH WIND       PRES   REMARKS
DES MOINES     CLOUDY    41  30  65 SE7       30.24F
IOWA CITY      CLOUDY    39  28  64 S7        30.31F WCI  34
FORT DODGE     CLOUDY    36  28  75 S10       30.23S WCI  28
MARSHALLTOWN   CLOUDY    39  31  72 S9        30.24F WCI  33
CEDAR RAPIDS   CLOUDY    38  30  73 S7        30.27F WCI  33
$$

...NORTHERN ILLINOIS...


CITY           SKY/WX    TMP DP  RH WIND       PRES   REMARKS
CHICAGO-OHARE  PTSUNNY   33  24  69 W6        30.33R WCI  28
CHICAGO-MIDWAY PTSUNNY   34  23  64 W8        30.34R WCI  27
MOLINE         CLOUDY    39  25  57 S5        30.31S
ROCKFORD       CLOUDY    36  24  62 W3        30.34R
PEORIA         CLOUDY    38  27  64 CALM      30.33F
$$

NOTE: "FAIR" INDICATES FEW OR NO CLOUDS BELOW 12,000 FEET WITH NO
SIGNIFICANT WEATHER AND/OR OBSTRUCTIONS TO VISIBILITY. WIND
SPEEDS ARE IN MILES-PER-HOUR.




USA.gov is the U.S. government's official web portal to all federal, state and local government web resources and services.